Theta_e
337 337 336 336 336 336 336 336 337 337 337 337 337 337 337 337 335 334 333 335 336 334 335 336 335 334 334 335 334 335 335 336 336 333 333 331 328 326 325 325 327 329 329 328 329 330 330 329 329 328 328 328 328 327 327 326 326 326 326 326 326 325 325 325 325 325 325 325 325 325 326 327 327 327 327 328 329 329 330 330 330 329 329 329 329
337 336 336 335 334 333 332 333 335 336 335 334 336 337 337 337 335 335 335 335 335 335 335 335 334 334 334 334 334 334 334 334 333 332 333 331 329 328 325 324 324 327 329 329 329 329 329 328 328 328 327 327 327 326 325 324 323 323 323 323 323 322 322 322 322 322 321 322 323 323 324 325 325 326 326 326 327 329 329 330 330 329 329 329 328
337 335 335 334 332 332 331 331 334 336 335 333 334 335 335 336 335 336 336 335 336 336 335 335 335 334 334 333 333 334 333 332 332 332 332 330 329 328 325 323 321 323 327 328 328 328 328 327 327 327 327 327 326 326 324 322 320 319 317 317 317 317 317 318 319 319 318 319 318 318 320 322 323 324 324 325 325 327 328 329 329 329 330 329 328
336 336 336 335 333 334 333 332 334 335 335 336 335 334 334 335 336 336 335 335 336 335 335 335 334 334 333 333 332 332 332 331 331 331 331 329 328 327 326 324 322 321 323 326 327 326 326 326 325 325 324 324 322 321 318 315 312 310 308 308 308 309 310 311 312 313 314 314 313 311 312 314 317 319 321 322 322 323 325 327 327 328 329 329 329
334 335 335 334 334 334 333 332 333 332 332 332 333 335 336 335 336 336 335 335 335 334 333 334 333 332 332 332 331 330 330 329 329 329 329 328 327 326 325 325 324 323 322 323 324 323 322 320 319 317 315 313 311 309 307 305 303 302 302 302 302 302 303 303 304 304 305 306 305 305 305 305 307 310 312 315 317 319 321 323 325 326 327 328 328
333 333 333 332 333 332 332 332 331 329 329 328 330 335 336 336 336 336 335 336 335 332 332 333 333 332 331 330 329 328 327 326 326 326 327 327 327 326 325 325 325 325 323 322 320 316 312 310 308 306 304 303 302 302 301 301 301 301 301 301 301 300 300 300 300 300 300 300 300 300 300 300 300 301 303 305 307 310 313 317 320 323 325 325 326
333 334 332 331 332 330 329 331 329 328 329 330 334 335 335 335 334 333 334 335 334 332 333 332 331 331 330 328 327 326 326 325 324 324 323 323 325 326 326 326 325 325 324 321 316 309 303 302 302 301 301 301 301 301 301 301 301 301 301 300 300 300 300 300 300 300 300 300 299 299 300 300 300 299 299 300 300 301 304 307 311 317 320 323 324
334 334 332 331 332 329 326 329 329 328 328 331 335 335 334 333 330 329 332 334 333 332 333 332 331 330 328 327 325 324 324 324 324 323 322 322 323 324 325 325 325 323 320 315 308 302 301 301 301 301 301 301 301 300 300 300 300 300 300 300 300 300 300 300 300 300 300 300 300 300 300 299 299 299 299 299 299 299 299 300 301 305 310 315 319
333 334 332 332 333 330 329 331 331 331 332 333 334 332 332 331 328 326 328 332 333 332 332 331 331 330 328 326 324 323 322 323 323 323 323 323 323 323 323 323 320 314 309 305 301 301 301 301 301 301 301 300 300 300 300 299 299 299 299 299 299 299 299 299 299 299 300 300 300 300 300 300 299 299 299 299 299 299 299 299 299 299 300 304 309
332 332 332 332 333 332 332 333 334 334 334 333 332 330 329 329 327 326 327 330 332 332 332 331 330 329 327 323 322 322 322 322 322 322 322 323 323 322 319 314 308 304 301 301 300 300 301 300 301 301 300 300 299 299 299 299 299 299 299 299 299 299 299 299 299 299 299 299 299 299 299 299 299 299 299 299 299 298 298 298 298 298 298 299 300
331 329 331 332 332 333 333 334 334 334 334 332 332 330 327 327 327 327 327 329 331 332 331 331 329 327 324 320 320 321 322 322 322 322 322 322 320 316 310 305 301 301 301 300 300 300 300 299 300 300 300 300 299 299 299 299 299 299 299 299 298 299 298 298 298 298 298 298 298 298 298 298 299 299 299 299 299 298 298 298 298 298 298 298 298
334 331 332 332 332 332 333 334 333 331 331 330 331 329 326 327 328 327 328 328 329 332 331 330 329 326 323 320 318 321 322 322 321 322 321 318 313 308 303 301 301 301 300 300 300 300 299 299 299 299 299 299 299 299 299 299 298 298 298 298 298 298 298 298 298 298 298 298 297 298 298 298 298 298 298 298 298 298 298 298 298 298 298 298 298
336 335 334 334 333 333 333 332 330 329 328 328 329 328 326 328 328 327 329 329 328 330 331 329 328 325 324 321 318 321 321 320 321 321 316 310 305 302 300 300 300 300 300 300 300 300 299 299 299 298 298 298 298 298 299 298 298 298 298 298 298 298 297 297 297 297 297 297 297 297 297 297 297 297 297 297 298 298 298 298 298 298 299 299 298
336 335 334 334 333 332 331 330 329 329 327 327 327 326 327 328 328 327 328 329 328 330 330 328 327 325 325 324 320 322 322 320 320 316 309 304 301 300 300 301 301 300 300 300 300 300 299 298 298 298 298 298 298 298 298 298 298 298 298 298 297 297 297 297 297 297 297 297 297 297 297 297 297 297 297 297 297 297 297 297 298 298 299 299 299
334 333 332 332 332 331 330 328 326 326 326 327 327 326 327 328 328 328 324 325 328 330 328 326 327 326 325 325 324 324 323 321 317 309 303 301 300 300 300 302 302 299 300 303 301 299 299 299 298 298 298 298 298 298 298 298 298 298 298 297 297 297 297 297 297 297 297 297 296 296 297 297 297 297 297 297 297 297 297 297 297 297 298 299 300
332 332 331 331 330 330 328 326 324 323 325 328 327 325 327 327 328 326 321 321 326 329 327 324 326 328 327 326 326 325 323 323 318 306 301 300 299 300 300 300 300 300 303 304 302 300 299 300 299 298 299 298 298 298 298 298 298 297 297 297 297 297 297 296 296 296 296 296 296 296 296 296 296 296 296 296 297 297 297 297 297 297 297 297 300
332 331 329 329 329 327 325 324 323 322 324 326 326 324 325 325 323 322 322 322 324 326 325 323 324 327 328 327 327 326 324 324 319 310 307 306 302 300 300 299 299 301 303 302 300 299 299 300 300 298 298 298 298 298 298 298 298 297 297 297 297 296 296 296 296 296 296 296 296 296 296 296 296 296 296 296 296 297 297 297 298 300 300 297 298
331 330 329 328 327 325 324 323 323 323 324 324 322 322 323 320 317 317 321 323 322 318 316 318 320 321 325 328 326 325 323 320 318 314 311 309 308 306 302 300 299 301 303 301 298 298 298 299 299 300 299 298 298 298 298 298 298 297 297 296 296 296 296 296 296 296 296 296 296 295 296 296 296 296 297 297 297 298 297 297 299 302 303 302 300
331 330 328 328 326 324 323 324 323 323 323 321 320 319 319 317 315 315 318 319 317 312 307 309 313 315 321 326 323 321 322 319 317 316 313 311 312 312 308 304 300 299 301 301 299 298 298 299 299 301 300 298 299 298 298 298 297 297 297 296 296 296 296 296 296 296 296 296 296 296 296 297 297 297 297 297 297 298 298 298 300 303 304 304 303
330 329 327 327 326 324 324 323 323 321 319 319 318 318 317 315 313 313 313 313 311 310 307 305 307 308 311 316 315 315 320 321 318 316 315 314 313 313 312 308 305 303 302 301 300 299 299 300 300 301 301 300 299 299 298 298 297 297 297 296 296 296 296 296 296 296 296 296 296 297 297 298 298 299 299 300 299 298 299 299 300 301 302 303 304
329 327 326 326 325 324 324 323 321 320 319 319 317 316 314 312 311 309 308 307 307 308 307 304 304 304 304 305 306 307 311 314 316 315 313 313 314 314 312 309 307 308 307 304 303 301 300 301 301 302 302 301 300 299 298 298 297 297 297 296 296 296 296 296 296 296 296 296 297 297 298 298 299 299 301 301 301 300 299 299 299 300 301 302 302
328 326 325 325 325 324 323 322 321 320 319 318 314 312 311 309 308 306 304 303 304 305 304 303 302 302 302 303 304 306 307 306 309 311 311 311 311 311 310 308 309 310 309 307 304 302 302 302 302 303 302 301 301 299 298 298 297 297 297 297 297 297 297 297 297 296 296 297 297 297 298 299 299 300 301 301 300 300 299 300 300 300 300 300 300
327 326 325 324 324 324 323 322 320 319 318 316 312 309 308 306 304 303 303 302 302 303 302 302 302 302 302 303 304 307 307 305 304 307 310 312 311 310 309 307 309 310 308 306 305 304 303 302 302 303 302 301 300 298 297 297 298 297 297 297 297 297 297 297 297 297 297 297 297 298 298 299 299 300 300 301 300 300 300 300 300 300 299 299 298
326 326 325 324 324 324 323 322 319 317 316 313 310 308 306 304 302 302 302 302 302 302 302 302 301 301 302 302 303 304 305 304 303 304 307 310 311 311 309 307 308 309 308 306 305 304 303 302 302 302 302 301 299 298 298 298 298 298 298 298 298 298 298 298 297 297 297 297 297 298 299 299 300 300 300 300 300 300 299 300 299 299 299 299 299
325 325 325 324 324 323 321 320 318 316 314 311 307 305 303 302 302 302 302 302 302 302 301 301 301 301 301 301 301 302 302 301 301 302 303 306 309 310 308 307 307 307 307 306 305 304 303 302 302 302 302 302 300 298 298 298 298 298 298 298 298 298 298 298 297 297 297 297 298 299 299 300 300 300 300 300 300 300 299 299 299 299 299 299 299
324 324 324 323 322 322 320 318 317 314 310 307 304 303 302 301 301 301 301 301 301 301 301 301 300 300 300 300 300 299 300 299 299 300 299 300 304 306 307 308 308 307 306 306 305 304 304 302 302 302 302 301 300 299 299 298 299 299 299 299 298 298 298 298 298 298 298 298 299 299 299 300 300 300 300 300 300 300 300 300 300 300 300 299 299
324 323 323 321 320 320 319 316 314 310 306 303 302 301 301 301 301 301 301 301 301 300 300 300 300 300 300 300 299 299 299 299 299 299 299 299 300 303 306 309 310 307 305 306 305 304 304 302 301 302 302 301 300 299 299 299 299 299 299 299 299 298 298 298 298 298 298 298 299 299 300 300 300 300 300 300 300 300 300 300 300 300 300 299 299
323 322 322 320 319 319 317 313 309 305 302 301 301 301 301 301 301 301 300 300 300 300 300 299 299 299 299 299 298 298 298 299 299 298 298 298 298 300 302 305 308 306 305 307 306 305 304 301 300 301 301 300 299 299 299 299 299 300 300 299 299 298 298 298 298 298 298 298 299 299 300 300 300 300 300 300 300 300 300 300 300 300 299 299 299
322 322 321 319 318 316 312 308 304 301 300 300 300 300 300 300 300 300 300 300 300 300 299 299 299 299 299 298 298 298 298 298 298 298 298 298 298 298 298 300 302 303 303 305 306 305 304 300 299 300 299 299 299 299 299 300 300 300 299 299 298 298 298 298 298 298 298 298 299 299 300 300 300 300 300 300 300 300 300 300 300 299 299 299 298
322 321 320 318 316 313 308 303 301 300 300 300 300 300 300 300 300 300 300 300 300 299 299 299 299 298 298 298 298 298 298 298 298 298 298 298 298 298 297 297 298 298 300 302 303 304 302 299 298 299 299 300 300 299 300 300 300 300 299 299 298 298 298 297 298 298 298 298 299 299 300 300 300 300 301 301 300 301 300 300 300 299 299 299 298
322 320 319 317 315 312 306 301 300 300 299 300 300 300 300 300 300 300 299 299 299 299 299 299 298 298 297 298 298 298 298 298 297 298 298 298 298 299 298 299 299 297 298 300 300 301 300 299 298 299 299 300 300 300 300 300 300 300 299 299 298 298 297 297 297 297 297 298 299 300 300 300 300 300 301 301 300 300 300 300 300 299 299 298 298
323 320 317 316 314 310 303 300 299 299 299 299 299 300 300 299 299 299 299 299 299 299 298 298 297 297 297 298 298 298 298 297 297 297 297 297 298 298 298 300 301 298 297 299 299 298 299 299 299 298 299 300 300 300 300 301 300 300 300 299 298 297 297 297 297 297 297 298 299 300 300 300 301 301 300 301 300 300 300 300 299 299 298 298 297
322 318 316 316 313 307 301 299 299 299 299 299 299 300 299 299 299 299 299 299 298 298 298 298 297 297 297 298 298 298 298 298 298 298 297 298 299 299 299 300 299 298 297 297 298 298 298 299 298 298 299 300 300 300 300 301 301 301 300 298 297 297 296 296 297 297 297 298 299 300 300 301 301 301 301 301 300 300 300 299 299 298 298 297 297
321 318 316 315 311 305 300 299 299 299 299 299 299 299 299 299 299 298 298 299 298 298 298 297 298 297 298 298 297 297 297 297 298 298 297 298 299 299 298 298 298 297 297 296 297 298 298 298 298 298 299 300 300 300 300 300 301 300 299 297 297 296 296 296 296 297 297 298 299 300 300 301 301 301 301 300 299 298 298 298 298 298 298 297 297
321 317 315 313 309 304 300 299 298 299 299 299 299 299 299 299 298 298 299 299 298 298 298 298 298 297 298 297 297 297 297 297 297 297 297 297 299 298 297 297 298 297 296 296 297 298 298 298 298 298 299 299 300 300 300 300 300 299 297 296 296 296 296 296 296 297 297 298 299 300 300 301 301 300 300 299 299 298 297 297 297 297 297 297 297
319 315 314 312 308 304 302 300 299 298 298 298 298 298 298 299 298 298 299 298 298 297 297 297 297 297 297 297 297 296 297 297 297 297 297 297 297 297 297 296 297 297 296 296 297 298 298 298 298 298 299 299 300 299 299 300 299 297 296 296 296 295 296 296 296 296 297 298 299 300 300 301 300 300 300 299 299 299 298 297 296 296 296 297 297
318 314 313 311 308 306 303 301 299 298 299 298 298 299 298 298 298 298 299 298 298 298 298 297 297 297 297 297 296 297 297 297 297 297 297 297 297 297 297 296 296 296 296 296 296 297 297 298 298 298 298 299 299 299 299 299 298 296 296 296 295 295 296 295 296 296 297 298 300 300 300 300 300 300 299 299 299 299 298 298 296 296 296 296 297
317 314 313 310 309 307 304 303 300 299 299 298 298 298 298 298 298 298 298 298 299 299 298 297 297 297 297 297 297 297 297 297 297 297 296 296 297 297 297 297 296 297 296 296 296 296 296 297 297 297 297 298 298 299 299 298 296 296 296 295 295 295 295 295 295 296 297 299 300 300 300 300 300 300 299 299 299 299 298 297 296 295 295 296 296
316 314 312 310 309 306 305 304 303 302 301 299 298 298 298 298 298 298 298 299 299 299 298 297 297 297 297 297 297 297 297 296 296 296 296 296 296 297 297 297 297 297 296 296 296 296 295 296 296 296 296 296 297 298 297 295 295 295 295 295 295 295 295 295 296 296 298 299 299 300 300 300 300 300 299 299 299 298 298 297 295 294 295 295 296
316 313 311 309 308 307 307 307 306 305 302 299 299 299 298 298 299 299 300 300 299 298 298 297 296 296 296 296 296 296 296 296 296 296 296 296 296 296 296 296 297 296 296 296 296 295 295 295 295 295 295 295 296 296 295 295 295 295 294 295 295 295 295 295 295 296 298 299 299 299 300 300 300 299 299 299 299 298 298 296 295 294 294 294 294
315 313 310 309 308 308 308 307 305 303 301 299 300 299 298 298 299 299 300 300 299 298 299 299 297 296 296 296 296 296 295 295 296 295 296 296 296 296 297 296 296 296 296 296 296 296 295 295 295 295 295 295 295 295 295 295 295 295 295 295 295 295 295 295 296 297 298 299 299 299 300 300 300 299 299 299 298 298 297 296 294 294 293 293 293
315 312 309 309 308 308 307 305 303 301 300 300 300 299 298 298 298 298 299 301 300 298 299 300 297 296 298 297 295 296 295 295 296 295 296 296 296 296 297 296 296 296 296 296 296 297 296 295 295 295 294 295 295 295 295 295 295 295 295 295 296 296 296 296 296 296 297 298 299 299 300 300 300 299 299 298 298 298 297 295 294 294 294 293 293
315 311 309 309 308 306 305 304 303 303 301 300 299 299 298 298 298 299 300 302 302 299 299 300 297 298 302 301 295 295 295 295 295 295 295 296 296 296 296 296 296 297 297 297 298 298 297 296 295 295 294 295 295 295 295 296 296 296 296 296 296 296 296 296 297 297 297 298 299 299 300 300 299 299 298 298 298 298 297 296 295 294 294 294 293
315 312 310 308 306 303 303 306 306 303 300 300 299 298 300 300 299 300 300 301 302 302 301 301 300 300 303 302 296 295 296 295 295 296 296 296 296 296 296 296 297 298 299 299 300 300 299 297 295 294 295 295 296 296 296 297 297 297 297 296 296 296 296 297 297 297 298 298 299 299 299 299 299 299 298 298 298 298 297 297 296 295 294 293 293
316 314 310 306 304 302 303 307 307 302 300 301 299 298 301 301 300 301 303 302 303 304 303 303 304 305 304 302 297 295 296 295 295 296 296 296 296 296 296 296 298 299 299 301 302 301 300 297 295 294 295 296 297 297 298 298 298 298 297 297 297 297 297 297 298 298 298 298 298 299 299 299 299 299 298 298 298 298 298 297 296 296 295 294 293
317 314 309 304 302 302 303 306 305 302 301 300 299 299 301 302 300 301 305 305 304 305 304 304 306 307 306 303 299 299 299 298 296 295 296 296 296 296 296 297 298 298 299 302 303 301 299 296 295 295 297 298 299 299 298 299 299 298 298 297 297 297 297 297 298 298 298 298 298 299 299 299 299 298 298 298 298 298 298 297 297 296 295 294 293
317 314 309 303 301 301 303 305 304 302 301 299 299 299 300 301 300 301 306 306 304 304 306 306 306 306 305 302 302 303 303 300 297 295 295 295 296 296 296 297 297 297 300 303 302 299 297 295 296 297 298 299 299 299 299 299 299 298 298 297 297 297 297 297 297 297 297 297 297 299 299 299 299 298 298 298 297 297 298 297 297 296 295 294 293
316 314 308 302 300 300 302 303 302 302 300 299 298 299 298 298 298 301 304 305 303 305 307 306 305 303 302 300 299 302 302 299 296 295 295 295 296 296 296 297 296 297 301 302 299 297 296 296 298 299 299 300 299 299 299 299 298 298 298 297 297 297 297 297 297 297 297 297 297 298 299 299 298 298 298 298 297 297 297 297 297 296 295 294 293
315 313 307 301 299 301 301 301 301 302 301 300 298 298 297 295 296 299 302 303 304 306 306 304 301 299 298 297 296 298 299 298 296 295 296 296 296 296 297 297 296 297 299 298 296 296 297 298 299 300 300 300 299 299 299 298 298 298 298 297 297 297 297 298 297 297 297 297 297 298 298 298 298 298 298 298 297 297 297 297 297 296 294 294 294
315 312 307 302 300 301 299 298 300 303 304 302 300 297 295 295 295 297 299 302 304 304 303 300 297 297 298 297 295 297 298 297 296 296 296 296 296 296 297 297 297 297 296 296 296 297 299 300 300 300 300 300 299 299 299 299 298 298 298 298 297 297 297 297 297 297 297 297 297 297 298 298 298 298 298 298 297 297 297 297 297 296 295 294 295
314 312 308 304 301 299 296 297 302 306 306 304 302 298 295 295 295 295 297 300 301 301 300 299 297 298 300 298 295 295 296 295 296 295 296 296 296 296 297 297 297 296 296 296 297 298 299 300 300 300 300 300 300 299 299 299 299 299 299 298 298 297 297 297 297 297 297 297 297 297 297 298 298 298 298 298 297 297 297 297 297 296 295 295 296
Wind_Speed
6 5 6 6 6 6 6 5 6 7 6 5 5 4 3 2 3 4 5 5 2 2 3 1 2 4 2 1 3 5 3 2 4 11 9 8 9 11 11 8 6 5 4 4 4 5 5 6 8 8 9 10 11 12 13 14 15 16 17 17 18 17 16 15 15 15 16 16 16 17 16 15 15 15 15 13 13 13 14 14 14 14 14 13 14
6 6 6 6 6 6 6 7 7 6 6 7 6 6 6 5 5 5 5 5 3 2 1 1 3 3 1 3 5 6 4 4 6 10 9 9 12 12 11 10 8 6 5 5 5 5 7 8 9 10 10 11 13 15 16 17 18 19 19 19 19 19 19 18 17 17 17 17 17 16 17 18 18 18 18 17 15 13 12 12 13 15 14 14 14
7 7 8 6 5 6 8 9 9 8 7 8 7 7 8 8 6 6 5 4 4 4 3 4 5 4 3 4 7 6 7 6 6 8 10 9 10 11 10 10 9 6 5 5 6 7 8 9 10 11 12 13 14 16 18 19 19 20 20 20 20 20 21 20 19 18 18 19 19 18 17 18 19 19 19 19 18 14 13 13 14 15 15 15 15
6 6 7 6 6 7 9 9 8 9 8 6 6 7 8 7 7 6 5 5 5 5 6 6 6 7 7 6 8 7 7 9 9 6 7 8 6 6 7 9 8 7 6 5 7 8 9 10 11 12 13 13 15 16 18 19 19 19 19 19 19 20 20 21 21 20 20 20 21 21 19 19 19 19 20 20 19 17 16 16 16 16 17 16 15
5 6 6 6 6 6 7 7 7 7 6 3 4 6 6 5 6 5 5 4 3 4 5 5 4 5 6 6 8 7 5 6 7 8 5 4 3 3 6 10 11 10 8 7 8 10 10 11 12 12 13 13 14 15 17 17 17 17 17 18 18 19 19 20 21 21 21 21 22 22 22 21 20 20 20 20 20 19 19 18 18 18 19 18 15
5 5 6 5 5 6 6 5 6 6 6 6 6 4 3 5 6 6 7 5 2 3 5 7 6 4 4 4 5 5 5 5 4 4 6 5 3 1 5 8 12 14 13 12 11 11 11 11 11 11 11 12 12 13 14 15 16 16 16 16 17 17 18 19 20 21 21 21 22 23 23 22 22 21 20 21 21 21 21 20 18 18 20 20 19
5 6 6 6 6 7 6 5 6 6 7 7 4 1 1 4 6 8 10 7 3 5 5 7 7 6 4 4 4 5 5 7 7 4 3 6 6 5 5 6 8 12 15 15 13 11 11 10 10 10 10 10 11 12 12 13 14 14 15 15 16 17 18 19 20 21 21 21 22 22 23 23 23 22 22 22 21 22 22 22 20 19 20 21 22
5 6 6 7 7 7 6 7 8 8 7 6 3 3 5 5 6 8 10 9 6 4 6 7 7 6 5 5 5 6 6 7 8 6 4 6 6 6 6 7 8 9 11 13 13 10 9 8 9 8 8 9 9 10 11 12 13 14 15 15 16 16 17 18 19 20 21 21 22 22 23 23 23 23 23 23 22 22 23 23 22 21 21 21 21
5 7 7 8 8 7 7 8 9 8 7 8 8 9 9 7 7 7 8 11 9 4 8 6 6 7 8 8 6 7 6 5 6 6 6 7 8 7 6 7 7 7 7 8 9 9 8 8 8 7 7 8 9 10 11 12 13 14 15 15 16 16 16 17 18 19 20 21 22 23 23 24 24 24 23 23 23 23 24 24 23 22 21 22 22
5 6 8 9 9 9 8 8 8 8 8 7 6 8 8 8 7 5 7 11 11 8 7 5 6 7 8 8 7 7 5 3 4 4 5 5 6 7 6 5 5 6 6 6 7 8 8 8 8 7 7 8 9 10 11 12 13 14 15 16 16 16 17 17 18 18 19 20 21 22 24 24 25 25 25 25 24 24 24 24 24 23 22 22 22
6 7 8 9 9 9 9 9 8 10 10 8 4 8 6 7 7 5 7 10 11 10 8 8 7 6 5 4 4 5 3 2 3 4 5 4 5 5 5 4 3 4 5 6 6 6 7 7 8 9 10 11 10 10 11 12 13 14 15 16 17 17 17 18 18 19 19 20 21 21 22 23 23 24 25 26 26 26 26 26 25 24 25 23 22
7 11 12 11 11 10 10 11 11 11 11 10 10 10 7 6 7 4 5 7 10 11 10 10 6 6 5 6 3 2 1 2 3 4 4 4 3 3 4 4 4 4 4 5 4 4 5 7 7 8 10 11 12 12 13 13 14 15 16 16 17 18 18 19 19 20 20 21 21 21 21 21 22 22 23 24 25 27 28 29 28 25 25 25 23
6 10 11 11 12 12 12 13 10 9 10 10 12 12 7 6 7 6 7 6 11 12 10 8 5 5 4 6 3 3 2 2 3 3 3 2 2 2 3 3 3 3 3 3 4 5 6 8 8 8 9 10 12 13 13 15 15 15 16 17 18 18 19 19 20 21 21 21 22 22 22 22 22 23 23 23 24 25 26 29 31 29 27 25 24
9 9 10 11 12 11 11 10 8 8 8 7 9 9 6 4 5 7 9 9 12 11 7 6 5 3 3 5 2 2 4 3 2 2 1 1 1 2 2 2 3 3 3 4 6 6 7 9 9 10 10 10 11 12 13 15 16 17 17 18 19 19 20 20 21 21 22 22 22 23 24 24 25 25 25 25 25 25 25 25 28 30 30 28 26
11 8 8 9 10 10 9 8 7 8 6 2 6 6 8 6 5 6 7 10 14 11 9 7 3 1 2 3 3 2 2 3 2 1 1 0 1 3 2 2 3 3 4 5 7 8 8 9 10 10 11 12 12 13 15 16 18 20 20 20 21 21 22 22 22 23 23 23 23 24 24 25 26 26 27 27 26 26 26 25 25 26 29 30 28
9 6 6 8 9 9 8 7 6 6 7 6 8 6 9 9 8 7 5 9 15 14 11 10 7 7 6 5 6 5 4 4 3 3 2 1 2 4 4 3 4 3 4 4 6 8 9 9 10 11 12 14 15 16 17 18 20 21 21 22 22 23 24 24 24 24 24 24 25 25 26 26 27 27 28 28 28 28 28 27 26 25 25 27 27
7 6 8 8 9 8 6 5 4 4 6 9 8 4 6 7 9 11 10 9 14 15 13 12 11 11 9 6 5 3 3 3 3 3 1 0 2 4 4 4 4 2 3 3 4 6 8 8 9 12 14 15 16 18 19 19 21 22 22 23 23 24 25 25 25 25 26 26 27 28 28 29 29 29 29 29 29 29 29 29 28 26 24 24 25
8 8 9 8 8 7 5 4 3 3 4 6 6 6 6 7 9 12 13 10 10 11 12 13 14 13 10 8 5 2 1 2 2 3 3 3 5 4 4 5 5 3 2 4 6 6 6 6 7 11 15 16 17 19 20 20 21 22 23 23 24 25 25 25 25 25 26 27 27 28 28 29 29 29 29 29 29 29 30 30 28 26 26 25 24
9 9 9 8 7 6 4 4 2 3 4 5 7 9 9 10 11 13 14 12 8 6 8 11 13 14 13 11 8 4 4 5 4 4 4 5 7 7 6 6 7 6 4 5 7 7 6 7 8 9 12 15 17 18 19 20 21 21 22 24 25 26 26 25 24 24 24 25 26 26 27 27 27 27 27 26 27 28 29 29 27 25 25 25 25
11 9 7 7 7 6 4 3 3 4 6 8 10 10 10 10 11 11 13 13 10 8 8 9 9 10 10 11 9 7 8 9 7 5 3 5 9 9 8 7 6 5 6 8 10 8 7 10 10 9 10 14 17 17 18 19 20 20 22 24 25 25 25 24 24 24 25 26 27 28 29 29 29 28 26 24 25 26 27 27 27 27 26 25 24
12 7 3 4 5 6 5 5 5 7 9 10 10 10 10 10 11 10 10 11 11 11 11 10 9 8 7 6 5 5 8 10 9 8 3 4 8 10 7 8 8 6 6 9 11 10 10 13 13 11 12 14 15 16 17 19 20 20 21 23 25 25 24 25 27 28 30 31 32 33 33 33 33 31 27 26 26 26 26 27 28 28 28 28 27
11 5 3 5 7 6 7 7 8 10 11 10 10 11 11 11 11 10 10 10 10 10 11 11 10 10 10 8 7 6 6 8 9 9 4 1 3 6 6 9 9 7 6 9 12 12 13 15 14 11 13 14 14 16 18 19 20 20 22 23 25 26 26 27 30 32 33 34 35 35 35 35 34 33 30 29 29 29 29 28 27 28 29 31 33
10 10 10 9 12 10 8 8 10 11 12 11 11 12 12 11 10 10 10 11 10 9 9 10 10 11 11 11 11 9 8 8 8 9 6 3 1 0 4 7 8 7 6 8 11 11 12 14 11 9 13 13 14 17 18 19 20 20 21 24 26 28 29 30 33 34 35 35 36 36 36 35 35 34 33 32 32 33 34 33 32 32 32 34 35
11 11 15 13 11 10 10 10 11 13 13 12 12 12 12 12 11 11 11 12 11 10 10 10 10 11 11 10 10 10 9 8 9 9 8 6 4 2 2 4 4 6 7 7 8 9 9 11 9 9 12 13 16 18 18 20 20 20 22 26 28 30 31 33 34 35 36 36 36 36 36 36 36 36 35 35 35 35 37 38 39 39 38 36 35
10 11 12 10 7 8 11 12 13 14 14 12 12 13 12 12 12 12 12 11 11 11 11 11 11 11 10 10 9 9 8 7 8 8 8 8 8 6 3 1 1 3 6 6 4 6 5 6 8 10 11 13 17 19 19 21 21 21 25 28 30 31 32 33 35 36 36 36 36 36 36 37 36 37 38 38 37 37 39 41 42 43 42 40 37
10 11 9 7 7 8 11 14 14 13 13 13 13 13 12 12 12 12 12 11 11 10 10 10 10 10 10 9 9 8 7 7 6 6 6 6 7 7 5 3 2 2 3 1 4 3 2 8 8 7 11 14 17 19 19 21 22 24 26 29 31 32 32 34 35 36 36 36 36 36 36 36 37 38 39 39 38 39 41 42 43 44 43 41 39
9 9 7 7 8 8 10 13 13 13 13 13 14 14 14 13 13 12 12 11 11 10 10 9 9 9 9 9 8 8 7 6 5 5 5 5 5 5 3 4 4 1 1 1 3 2 5 10 8 5 11 14 16 19 20 22 23 25 27 29 31 32 33 35 35 36 36 35 35 35 36 36 37 39 40 39 38 39 41 42 43 43 42 40 40
7 8 8 10 10 9 9 12 12 13 13 14 14 14 14 13 13 13 12 12 11 10 10 10 9 9 9 8 7 6 6 5 4 5 5 6 6 6 4 3 4 2 0 0 3 3 6 11 9 7 11 14 17 19 21 22 23 26 27 29 32 33 34 35 35 36 36 36 35 35 36 36 38 39 38 37 37 39 41 42 42 41 41 40 41
9 11 10 10 10 9 10 12 13 14 15 15 15 15 14 14 14 14 13 12 12 11 11 11 10 9 9 8 7 6 6 5 5 5 6 7 6 7 6 5 4 2 1 1 3 4 8 12 12 12 13 15 19 21 22 23 24 26 28 30 33 34 35 35 35 36 36 36 35 35 36 37 37 36 36 36 39 41 43 43 42 42 41 41 42
10 12 11 10 11 11 12 14 14 15 16 16 16 16 15 15 14 14 13 12 12 12 11 11 10 9 8 8 7 6 6 6 6 6 6 7 7 6 6 7 6 5 3 3 4 4 8 12 13 15 17 18 20 22 23 24 24 27 29 32 33 34 35 35 35 36 36 35 34 34 34 36 35 35 36 39 42 44 45 45 44 42 41 42 42
9 12 11 11 13 14 15 15 15 16 16 16 17 16 16 15 14 13 13 12 12 12 11 10 10 9 9 8 8 7 7 7 7 6 5 5 6 6 5 6 7 7 6 6 7 7 8 12 15 16 18 19 22 23 24 24 25 27 30 32 34 35 35 36 36 36 36 35 33 32 33 35 34 34 37 41 44 46 47 48 46 44 43 42 41
10 14 12 11 14 16 16 16 16 16 17 17 17 17 16 15 14 14 13 13 12 12 11 10 10 10 9 9 8 8 8 8 7 6 6 6 6 5 5 6 6 7 8 8 10 11 10 12 16 18 18 20 22 23 24 24 25 27 29 32 34 35 36 37 37 36 35 34 32 31 33 33 32 33 38 43 47 48 49 48 47 45 44 41 37
11 14 14 13 14 16 16 16 17 16 17 18 17 17 16 15 15 14 14 13 12 11 11 11 11 10 9 8 7 7 7 8 7 5 5 6 5 5 4 4 4 6 9 9 11 14 13 13 17 19 19 20 22 24 23 24 25 26 28 32 33 35 37 38 37 36 35 33 32 31 31 30 30 33 39 44 47 49 48 47 46 45 42 38 35
9 13 16 16 16 16 16 17 17 16 18 18 17 17 17 16 16 14 14 13 12 11 11 11 10 9 9 8 7 6 6 6 6 5 4 4 4 3 2 3 4 6 9 10 12 15 17 17 19 20 20 20 22 23 23 24 25 26 30 32 33 35 37 37 37 36 35 33 32 31 29 28 29 33 39 43 47 48 46 46 45 42 39 36 35
11 15 17 17 17 16 16 17 17 17 18 18 17 18 17 16 15 14 14 12 12 11 11 11 10 9 9 8 7 7 6 6 5 5 4 2 3 2 2 3 4 6 8 10 11 14 18 20 21 22 22 22 22 23 23 23 23 27 31 32 34 36 37 37 37 36 35 34 32 29 27 27 30 35 40 45 50 52 49 49 47 41 38 36 34
11 17 18 18 17 17 17 17 17 17 18 18 18 18 17 15 15 14 13 12 11 11 11 11 10 10 9 8 8 7 7 6 5 5 4 1 1 1 2 3 4 6 8 10 11 13 16 20 21 22 22 22 22 23 23 22 24 29 31 32 35 37 37 38 37 36 35 34 31 28 27 27 31 38 43 48 54 55 55 57 53 43 38 36 32
13 19 19 18 18 17 17 17 17 18 18 18 18 18 17 16 15 14 13 12 12 11 12 12 11 10 10 9 8 8 7 6 5 4 3 1 0 0 1 3 5 7 9 11 12 13 15 19 21 22 21 21 22 23 22 23 28 31 30 31 35 37 38 38 38 36 35 34 31 29 27 29 35 41 46 50 55 55 57 60 55 42 35 31 29
16 20 20 19 19 18 17 17 17 18 17 17 18 17 17 16 15 14 13 13 13 13 12 12 11 11 10 9 8 8 7 5 4 3 3 1 1 1 3 4 6 8 10 12 13 14 14 17 20 21 21 22 23 22 22 25 30 31 32 34 36 37 38 40 40 38 36 34 31 29 30 33 38 43 48 52 53 54 57 60 54 42 33 27 27
18 20 21 20 19 19 18 17 16 16 16 16 16 16 16 16 15 14 14 14 14 13 11 11 11 11 10 10 9 7 6 5 3 3 2 1 1 3 4 6 8 9 11 13 14 15 16 17 19 21 22 23 23 23 25 28 29 30 33 37 39 39 39 40 42 40 37 33 32 32 34 36 39 44 48 50 52 54 58 59 50 40 34 29 29
20 21 21 22 20 19 18 17 17 16 17 17 16 16 16 15 15 14 14 14 13 12 11 11 11 11 10 10 9 6 5 4 3 2 2 1 2 4 5 7 9 11 12 14 15 16 18 20 22 23 24 25 24 25 28 30 30 31 34 36 39 41 41 42 43 41 38 34 35 38 38 37 41 46 48 49 52 55 59 56 45 37 35 33 33
21 21 22 22 22 21 20 20 20 19 19 20 19 19 18 18 17 16 14 13 13 13 12 11 11 11 11 10 7 6 6 5 3 3 2 2 3 5 6 8 10 11 13 14 16 17 20 23 25 25 27 27 26 28 30 29 29 32 35 36 39 41 43 44 44 41 38 36 38 42 41 39 42 46 48 50 53 56 58 54 45 40 40 38 36
21 22 23 23 23 24 24 24 23 21 21 21 22 21 21 19 17 16 15 14 13 13 12 11 11 11 10 9 7 6 6 5 3 4 3 3 4 6 8 9 10 11 13 16 18 19 22 25 26 27 28 27 27 28 29 29 30 33 36 38 40 42 44 46 46 43 40 39 41 43 41 40 43 46 49 52 53 55 57 52 46 44 43 42 40
22 24 26 26 26 27 26 23 20 20 21 23 23 22 21 19 17 16 15 14 13 12 12 11 10 10 9 8 7 7 6 5 5 5 4 3 5 7 8 10 11 12 15 17 19 20 23 26 27 28 28 27 27 28 28 29 32 34 37 39 40 43 45 47 47 46 43 42 42 43 42 41 42 46 51 53 52 56 58 52 48 46 44 42 42
25 27 28 28 28 28 26 19 18 21 24 25 24 22 20 19 18 17 16 15 14 12 11 10 8 8 9 9 7 7 7 6 6 5 3 3 5 7 9 10 11 13 16 18 19 20 23 26 28 29 28 27 27 27 28 30 33 35 37 38 40 42 44 45 45 46 45 43 41 42 42 42 42 47 53 54 53 58 59 53 50 48 46 43 41
26 26 28 28 29 30 26 18 18 23 25 24 23 23 22 21 19 17 15 14 13 12 11 9 6 7 10 10 8 7 6 6 5 4 4 5 6 8 10 11 11 13 15 16 18 20 24 26 28 29 27 25 26 27 29 31 33 36 37 39 40 41 42 42 43 44 44 42 40 41 43 42 43 49 54 54 54 59 59 55 52 50 48 46 41
25 27 29 30 30 29 25 20 19 23 25 24 24 24 23 22 20 18 15 12 13 12 10 9 10 12 14 11 8 6 7 7 5 4 4 5 7 8 10 11 11 12 13 14 16 20 23 25 27 27 24 22 25 28 30 31 32 34 36 39 40 40 40 40 41 42 41 40 40 41 42 43 46 50 54 54 56 60 60 57 54 52 51 48 42
25 27 30 31 30 28 26 22 21 22 24 25 25 24 23 23 22 20 18 15 14 13 12 13 17 18 16 12 8 7 9 10 6 4 5 6 7 9 10 10 10 9 10 12 15 18 21 22 22 21 21 22 26 29 30 30 31 32 34 36 38 39 39 40 41 42 41 41 40 39 41 45 47 50 54 55 58 61 60 58 56 54 51 48 44
24 25 27 30 30 28 27 25 22 22 24 25 24 22 23 24 23 22 20 17 14 13 15 18 19 17 15 14 12 12 13 12 7 5 6 6 7 9 9 9 9 9 8 11 14 16 17 16 16 18 21 24 27 28 29 30 30 31 33 35 37 38 39 40 41 43 44 43 40 38 41 47 48 50 53 55 59 63 60 58 59 56 51 49 46
24 23 25 28 29 27 26 24 22 22 23 23 22 22 23 24 24 25 22 18 15 15 18 18 15 14 15 14 13 13 13 12 8 6 6 7 7 8 9 9 10 9 8 10 13 13 12 14 16 20 23 24 25 26 27 28 29 30 32 35 37 38 39 39 41 43 45 44 40 40 44 47 48 51 52 53 59 62 60 60 62 58 53 50 46
23 23 24 26 26 24 23 23 23 22 22 22 21 21 22 23 24 26 24 19 16 16 17 15 12 13 14 13 12 13 13 9 6 6 7 7 7 8 9 10 10 10 9 11 12 11 12 16 19 21 22 23 24 24 25 26 27 29 32 35 37 37 37 39 40 42 44 43 41 43 45 47 48 51 51 52 57 59 59 62 63 60 56 53 45
22 22 24 25 24 22 22 23 22 21 22 22 22 21 22 23 24 25 25 19 13 12 12 12 11 13 14 13 12 13 12 8 6 7 7 7 8 9 10 11 11 10 9 11 12 13 16 19 20 21 21 21 22 23 24 27 28 30 32 34 35 35 36 38 40 41 43 44 43 44 45 46 48 49 50 51 55 59 61 64 64 61 58 54 43
Wind_Direction
210 215 212 206 214 199 197 207 197 204 204 184 181 179 160 167 194 183 154 139 155 192 185 218 43 65 62 343 90 91 38 359 309 325 348 9 7 6 358 351 345 346 352 351 356 354 345 345 343 337 338 336 328 324 321 321 325 329 333 333 333 333 329 328 328 327 328 330 330 332 335 336 336 327 317 317 320 314 310 313 314 315 315 315 317
209 212 220 222 221 212 208 206 202 204 200 192 186 171 169 182 196 180 149 147 150 132 144 114 74 98 100 42 79 115 97 41 359 344 354 12 9 1 355 351 345 336 336 341 344 343 338 338 337 330 327 326 327 328 323 323 328 331 332 332 331 331 330 330 330 328 328 328 325 327 330 331 333 333 328 325 327 321 307 302 302 305 308 308 306
214 215 210 209 217 210 203 205 203 197 189 185 182 175 177 170 169 167 148 152 157 154 159 134 99 89 108 96 89 109 129 108 55 9 359 13 15 1 349 342 343 336 324 330 332 333 332 328 327 325 322 320 321 321 319 321 326 327 327 329 329 328 328 329 329 328 327 326 323 323 326 326 327 328 330 330 332 327 308 297 295 296 296 300 304
223 220 201 188 200 199 199 205 195 193 195 178 174 188 188 160 151 175 174 170 173 169 167 157 139 108 99 123 125 112 129 142 132 92 29 15 12 360 339 328 335 337 332 330 328 329 326 322 322 319 318 316 314 313 314 317 321 323 324 324 325 325 325 324 325 325 326 324 322 323 322 322 322 321 322 324 327 326 314 304 301 298 294 293 297
238 224 207 191 196 196 200 205 193 201 205 186 206 204 186 142 139 167 158 150 174 170 151 129 131 135 121 137 148 135 131 148 158 153 120 50 28 349 321 320 324 325 328 329 329 331 326 321 320 318 318 316 315 315 316 319 321 324 325 325 326 325 324 324 324 324 325 324 322 323 323 321 321 318 316 316 317 318 314 310 307 305 302 298 298
243 218 211 212 211 203 199 203 207 210 191 186 216 212 147 140 161 168 143 138 150 116 119 110 105 151 180 185 168 154 144 116 103 158 180 173 154 309 315 320 321 319 320 325 332 335 329 326 325 324 325 323 322 322 321 323 325 327 328 327 328 328 328 328 328 327 327 327 326 326 327 327 325 323 319 315 313 311 310 309 309 306 303 302 304
241 220 217 230 218 204 202 206 212 210 200 194 200 227 189 180 189 175 141 134 112 101 144 165 159 167 193 216 191 173 169 143 125 122 190 214 210 221 258 291 307 310 312 319 331 337 333 332 333 332 330 328 327 325 325 325 327 329 330 330 331 331 332 331 331 331 330 330 330 330 330 330 329 328 326 321 317 313 309 307 306 304 301 301 301
230 223 222 226 213 202 206 212 209 205 206 199 189 220 221 210 208 187 152 135 118 141 199 208 206 204 220 232 197 179 178 171 177 184 225 263 269 259 265 279 285 290 297 310 323 333 339 339 336 334 333 333 332 330 331 332 332 334 336 338 338 337 336 334 333 332 331 330 330 331 331 330 330 329 328 326 323 319 315 311 308 305 301 299 298
208 215 212 208 210 208 209 215 209 204 203 199 212 220 212 212 218 206 170 142 127 188 229 231 233 239 249 245 209 189 187 186 208 224 245 272 293 295 296 297 295 299 302 311 321 332 343 343 336 334 337 339 343 343 342 344 344 344 345 346 345 344 343 340 338 336 335 334 333 332 332 331 330 329 328 328 327 324 320 317 314 310 304 299 297
201 211 198 191 202 203 205 209 203 210 211 202 242 256 223 210 225 218 178 156 145 172 210 220 235 243 249 244 208 190 194 217 244 267 281 284 290 297 306 309 313 318 319 328 334 335 340 342 338 344 355 355 358 358 354 353 354 353 353 352 350 349 348 346 344 342 340 339 338 336 334 333 331 330 329 328 328 327 324 320 317 315 311 304 300
197 197 194 187 194 202 202 202 205 218 210 186 222 262 234 202 225 220 176 175 169 174 196 202 217 242 262 283 231 189 178 256 290 297 293 293 291 301 318 328 330 325 333 343 342 338 341 348 347 350 357 1 6 9 6 2 0 360 358 356 354 352 352 351 349 347 345 343 341 339 336 334 332 330 328 327 326 326 325 322 319 316 313 311 307
180 180 190 191 196 211 214 215 224 225 212 189 196 227 232 209 229 217 172 186 175 179 209 213 230 273 300 335 325 170 136 272 289 298 299 310 305 310 325 334 342 339 341 335 330 342 359 9 7 356 356 360 4 7 9 9 7 4 0 358 357 356 355 353 352 351 349 346 343 341 338 336 334 331 329 327 325 324 323 322 321 319 315 312 311
165 164 173 177 190 211 218 221 225 227 226 211 208 224 231 223 232 198 168 161 160 176 212 233 267 281 308 352 35 88 10 279 268 293 311 324 307 311 313 320 335 334 329 337 353 358 10 20 18 11 8 7 8 6 9 13 13 8 4 3 2 360 358 355 355 354 350 348 344 342 340 338 337 334 332 329 327 324 322 321 321 321 319 314 311
185 180 177 178 189 208 221 220 208 213 232 229 225 227 212 225 232 184 170 160 163 179 205 233 273 292 357 5 37 35 344 288 265 286 288 271 294 316 303 311 322 318 330 1 11 0 7 19 19 18 17 14 14 12 12 15 15 12 8 7 5 2 1 358 357 354 350 347 344 342 340 339 338 335 334 332 329 326 323 321 319 319 319 318 314
202 198 199 198 201 214 229 233 218 210 205 228 264 222 181 203 215 190 182 169 172 179 188 200 221 261 316 310 264 283 301 267 262 207 196 197 353 337 324 322 315 325 6 8 0 355 4 18 20 23 22 18 18 17 17 17 15 13 10 9 6 4 1 359 356 353 349 346 344 342 340 338 336 334 333 331 328 326 323 320 317 315 315 316 317
218 215 226 222 215 217 223 230 234 217 175 189 246 214 178 191 189 183 166 160 177 187 197 196 177 185 206 232 246 234 221 237 233 190 168 67 25 352 333 324 318 347 23 1 345 351 356 6 12 20 24 21 21 20 19 17 12 11 12 10 7 4 1 358 355 351 348 346 344 342 339 337 335 333 331 328 326 324 321 319 315 312 309 309 312
221 227 235 224 213 211 217 219 231 237 189 196 222 193 171 186 179 174 161 167 193 200 209 209 196 197 197 199 218 218 219 230 213 191 169 82 353 348 339 335 334 2 32 358 355 2 353 350 1 15 22 20 21 21 19 15 9 6 10 10 7 4 1 358 354 350 347 346 344 342 339 337 334 332 330 327 324 321 319 317 316 314 310 304 303
209 222 231 221 207 203 214 227 226 230 216 207 201 180 181 185 180 178 173 184 207 208 211 214 216 221 212 204 209 186 159 183 198 199 210 264 292 306 327 347 354 13 20 347 1 16 5 353 6 16 13 12 17 17 15 11 3 1 5 6 6 4 1 358 354 350 348 346 343 340 336 333 329 326 324 322 320 318 316 315 315 315 313 309 303
213 224 235 226 209 197 205 230 239 227 225 217 205 203 203 195 192 193 190 194 203 203 203 207 218 228 228 232 242 234 185 182 200 206 221 264 282 288 300 325 355 21 26 354 350 2 19 21 27 27 6 6 16 13 8 5 358 359 1 3 5 2 359 357 353 350 348 345 342 338 336 333 330 326 321 317 314 311 311 311 313 313 313 313 310
223 223 230 225 205 195 204 222 229 228 226 224 219 217 216 210 210 209 205 203 197 188 188 194 210 221 227 239 245 230 198 190 193 190 223 269 266 271 289 303 329 6 14 7 353 347 19 31 32 35 8 4 13 8 1 359 356 0 2 1 2 358 356 354 353 353 352 350 348 345 344 343 341 339 332 323 317 311 310 309 308 309 309 311 309
229 217 215 246 220 199 209 216 217 228 235 235 229 223 220 216 218 219 213 210 207 202 195 190 193 190 190 207 215 205 199 200 206 209 232 285 250 246 275 306 313 318 335 356 352 346 16 26 22 23 5 356 1 358 354 352 355 2 3 1 358 356 356 356 357 358 356 354 352 350 349 348 346 345 339 333 328 323 320 315 310 309 308 306 301
223 177 109 288 259 216 216 222 221 234 243 239 226 219 219 217 217 217 210 207 211 214 205 197 198 193 185 179 170 171 189 201 211 212 217 311 235 234 278 304 303 299 317 340 344 353 17 22 16 2 347 347 347 347 349 350 353 360 360 357 356 356 357 358 358 358 357 354 351 350 348 346 346 343 338 336 335 333 330 325 320 316 312 307 303
214 161 156 225 243 221 220 230 226 235 242 234 221 215 215 214 212 209 201 196 197 202 203 204 207 206 201 197 190 189 197 203 204 195 190 192 151 321 298 295 288 291 318 333 340 358 13 16 13 337 326 337 341 343 350 351 353 356 356 356 356 356 356 357 358 357 355 352 350 349 346 344 343 340 336 334 332 333 332 329 325 322 318 313 308
222 191 184 208 232 220 219 232 228 230 235 227 218 215 213 209 201 195 192 189 187 190 195 200 204 206 207 209 207 207 212 212 204 196 195 189 163 151 281 288 279 293 310 315 345 20 20 6 352 319 317 327 334 343 350 349 351 353 354 357 356 354 355 356 356 355 353 351 348 346 343 341 339 337 335 332 329 330 330 329 327 324 322 318 313
223 223 210 207 231 225 217 229 231 228 229 222 215 213 208 203 196 189 188 187 189 190 192 196 197 198 202 207 209 207 211 209 199 201 203 192 186 184 193 244 265 307 297 295 5 52 49 353 333 317 315 317 327 340 345 345 350 353 353 354 353 352 353 352 351 351 350 348 345 343 340 338 335 333 332 329 327 327 327 327 326 324 323 321 318
217 231 224 202 226 232 218 226 230 224 221 214 209 207 200 196 191 186 185 184 188 188 189 194 193 194 198 199 200 195 193 195 191 197 197 189 195 192 180 179 160 332 298 334 42 57 331 325 326 321 313 312 323 333 340 343 350 355 353 349 348 349 350 349 348 348 347 345 342 340 337 334 332 330 328 327 327 327 327 326 324 324 324 323 319
215 226 218 191 212 231 223 223 221 214 212 208 205 202 196 192 187 184 185 183 185 184 183 188 189 193 193 188 188 183 177 179 179 182 175 162 160 156 158 159 134 30 291 75 29 350 318 319 327 330 308 312 327 334 341 348 352 355 350 344 344 347 348 347 345 345 344 343 340 337 333 330 329 327 326 327 328 327 326 324 324 324 323 320 316
201 216 211 193 206 225 217 210 206 204 204 202 202 199 193 189 185 185 185 183 184 182 180 185 186 186 184 177 173 168 168 170 166 164 156 147 138 123 111 125 118 78 138 98 319 304 312 319 334 340 315 324 339 341 344 350 352 350 345 342 344 347 348 346 343 342 343 342 339 334 331 329 327 327 327 329 328 327 326 325 324 322 319 317 315
189 213 219 202 207 212 200 196 196 198 199 198 196 193 189 187 185 186 187 186 186 183 182 183 182 180 175 170 165 161 161 156 151 156 151 139 124 107 99 97 91 90 144 309 310 289 302 321 336 339 337 342 342 343 347 347 348 345 342 344 346 346 347 344 342 342 341 339 335 331 329 327 327 329 331 331 328 327 326 325 323 320 318 317 315
193 214 223 209 200 194 193 194 194 197 198 195 193 191 189 187 187 188 188 189 188 187 186 183 180 177 170 163 162 159 156 153 150 155 156 141 118 99 92 81 60 55 63 358 338 311 314 332 342 340 345 346 341 344 347 343 342 342 341 343 344 344 344 343 342 340 338 336 332 329 327 327 328 331 332 330 328 328 326 324 323 320 318 317 315
201 213 213 200 191 191 196 195 195 198 197 194 193 192 190 189 189 188 188 189 188 185 185 181 174 168 164 162 162 159 155 155 153 148 145 133 114 97 85 67 36 23 25 358 340 341 334 336 344 347 345 343 343 343 341 340 340 338 338 339 339 341 343 342 340 337 336 335 332 329 327 328 331 334 333 331 330 328 326 325 324 321 319 317 315
210 209 197 188 190 195 197 194 196 199 195 194 194 192 190 189 189 188 187 187 186 184 181 176 170 167 171 174 172 172 166 156 149 140 129 113 96 85 68 49 17 359 3 349 335 345 352 339 340 348 347 342 341 339 337 337 335 332 333 334 336 341 344 341 337 335 336 337 335 331 327 329 334 335 332 331 330 328 326 325 324 322 321 320 318
218 201 185 183 190 195 196 194 198 199 195 195 195 191 190 189 188 187 186 185 183 182 178 176 175 175 179 183 179 182 179 162 152 145 136 117 86 66 49 33 9 351 351 346 335 340 354 353 345 349 351 341 336 338 338 332 329 328 328 331 338 343 343 339 335 336 338 338 337 332 329 333 336 333 330 330 331 329 326 324 323 322 321 321 320
215 189 180 184 189 193 195 196 199 198 196 197 194 192 192 191 189 185 185 187 183 180 180 180 184 184 185 185 178 174 173 163 150 143 143 127 97 68 39 17 6 355 345 342 339 336 343 352 350 348 347 339 334 338 335 327 327 325 324 333 341 343 343 340 336 338 340 339 336 332 333 337 332 326 327 331 335 336 331 325 322 320 320 319 318
207 184 182 187 189 193 196 196 199 197 197 197 195 194 195 193 189 186 188 189 184 183 185 184 185 188 188 184 178 173 169 165 155 145 148 139 107 85 40 9 355 351 344 339 340 336 334 342 347 343 339 337 334 331 328 326 324 322 326 337 342 342 344 343 339 340 341 339 335 333 337 334 324 321 325 330 337 342 341 336 329 321 317 316 315
202 185 186 191 191 193 194 195 197 196 198 198 196 197 196 192 190 190 193 189 182 184 187 185 186 189 190 184 180 182 176 174 175 157 149 150 105 87 28 2 347 345 345 342 342 337 329 331 339 338 334 334 330 325 327 325 320 324 333 338 339 342 346 346 342 341 341 339 335 335 336 328 319 321 326 330 335 340 342 341 335 325 318 316 314
196 188 190 190 189 189 190 194 195 196 198 197 197 198 194 191 192 193 191 183 179 186 189 188 189 189 190 190 187 190 188 183 183 165 151 163 151 57 1 354 348 344 345 343 343 341 332 328 331 333 333 329 325 327 330 324 322 331 337 336 338 343 346 346 344 341 340 338 336 337 335 324 318 321 327 333 336 337 339 340 338 330 320 317 317
194 192 188 185 186 186 187 192 193 196 199 196 197 198 192 191 192 190 187 182 184 194 195 192 194 195 194 196 197 197 199 196 189 179 170 184 286 334 348 346 341 341 342 343 344 345 339 330 329 332 333 330 328 330 329 326 329 336 335 333 340 347 347 345 343 341 339 338 337 337 332 322 319 324 331 335 336 337 338 339 338 333 326 322 317
195 193 185 183 186 185 186 187 187 193 196 193 195 195 191 191 190 188 189 190 192 197 197 194 198 200 199 202 206 203 203 209 204 194 195 237 311 329 341 340 338 341 343 343 346 347 343 338 338 338 337 336 335 331 329 333 338 338 335 335 339 346 347 345 341 338 339 339 337 336 330 323 322 327 332 334 335 338 340 339 338 335 328 319 308
196 192 186 187 186 181 181 180 180 188 193 193 196 197 194 192 193 194 195 196 196 192 192 199 200 201 202 206 209 204 201 214 222 222 246 283 317 332 335 336 338 341 343 342 344 346 345 345 346 344 340 340 338 334 335 341 340 337 339 339 338 342 343 342 340 338 337 338 336 334 331 325 325 329 331 332 335 339 341 340 338 335 329 318 306
196 191 188 189 183 176 178 182 188 198 203 203 204 202 201 200 200 202 198 197 198 191 192 203 203 202 208 210 206 203 203 209 225 238 257 283 310 327 330 335 339 338 340 342 343 345 347 348 348 346 343 342 340 337 339 342 338 337 342 343 340 340 338 337 339 339 338 338 335 333 332 329 327 330 332 333 337 340 342 341 339 336 334 328 319
195 191 189 187 181 181 187 192 200 211 214 211 207 205 204 203 202 203 197 194 198 196 196 205 204 200 211 216 205 204 212 213 231 254 265 292 315 327 329 332 334 334 340 346 347 348 347 347 348 346 344 341 338 337 339 341 341 342 345 344 339 338 337 333 335 339 342 339 334 333 332 331 330 331 333 335 338 342 344 345 343 339 335 332 329
196 193 194 190 187 193 200 204 214 222 217 209 206 206 205 201 199 199 196 193 196 197 197 205 205 198 208 223 211 205 218 220 227 247 259 297 319 326 327 325 328 337 345 347 346 346 345 345 346 345 342 337 336 340 343 344 346 346 345 343 338 336 336 332 330 335 341 339 334 331 330 331 331 332 334 337 339 343 345 345 345 343 338 333 331
201 200 202 199 196 200 206 213 224 223 215 209 207 205 203 200 198 196 194 193 192 194 198 202 206 203 211 226 224 217 225 224 227 244 263 300 315 322 321 320 331 343 344 341 340 340 341 341 342 342 341 336 337 345 349 347 346 345 344 342 338 336 334 332 329 331 336 338 335 330 328 330 332 332 333 336 338 341 344 343 344 345 342 338 334
207 207 209 205 202 203 208 220 227 218 212 211 209 205 201 200 199 191 188 194 192 190 194 191 194 219 228 235 240 237 236 237 242 261 288 309 319 324 320 322 336 342 338 336 336 335 336 338 338 339 341 341 342 349 352 349 344 342 341 340 339 337 335 332 329 329 332 336 335 329 326 329 333 332 332 336 338 340 343 344 344 343 342 341 338
211 211 211 207 205 206 211 223 224 214 212 211 209 206 201 202 201 186 176 194 200 191 188 186 193 214 227 235 243 254 262 258 253 265 291 308 316 318 319 327 336 337 336 337 332 330 334 336 334 336 343 348 347 348 350 347 342 340 340 339 338 338 336 332 330 329 332 336 335 330 326 329 333 332 333 336 338 340 344 345 344 343 342 341 340
212 213 212 210 210 209 213 222 219 211 211 212 211 209 204 203 203 188 176 190 199 189 188 200 207 214 223 227 220 224 250 259 260 269 283 298 308 311 319 327 331 339 344 335 326 329 334 334 333 339 349 353 351 348 346 344 341 340 340 338 337 337 335 333 332 333 334 336 337 332 326 328 333 332 334 337 338 339 344 346 345 344 343 342 341
215 216 213 211 212 212 216 220 214 207 212 215 213 211 207 205 203 194 188 189 188 190 202 213 218 221 226 229 220 215 234 252 260 264 275 291 302 308 319 323 327 344 345 324 323 331 335 337 345 355 358 356 352 347 344 343 342 341 339 337 338 338 336 335 334 334 334 337 340 336 328 329 333 333 334 337 338 339 343 346 346 347 346 345 343
217 217 213 212 213 215 216 214 207 206 214 219 217 211 209 207 202 199 198 191 186 200 215 221 223 224 227 230 223 219 234 250 256 256 271 289 299 307 317 320 325 337 336 327 333 342 349 358 5 5 3 357 350 346 346 344 343 342 339 338 340 341 339 336 334 334 335 337 341 339 332 330 334 334 335 337 338 340 344 347 349 351 350 348 346
222 220 215 214 215 215 213 206 203 209 217 221 220 213 209 208 203 201 201 197 198 209 219 225 224 219 227 232 222 223 238 254 261 262 273 288 299 306 312 317 326 334 343 345 346 355 8 12 11 8 3 356 349 347 347 345 343 344 344 344 345 344 341 337 335 334 335 337 342 341 334 332 336 338 337 338 339 342 346 348 350 353 353 351 350
223 221 216 216 215 212 208 200 200 212 219 222 224 218 210 207 204 203 202 200 206 212 213 222 222 216 227 235 227 231 245 255 262 268 277 289 299 305 309 318 330 341 353 358 358 6 14 13 11 7 360 352 348 348 347 345 347 350 351 350 348 346 342 339 338 337 334 336 342 344 336 333 337 341 342 341 340 342 346 350 352 355 356 355 355